TimeCDT,TemperatureF,Dew PointF,Humidity,Sea Level PressureIn,VisibilityMPH,Wind Direction,Wind SpeedMPH,Gust SpeedMPH,PrecipitationIn,Events,Conditions,WindDirDegrees,DateUTC
12:15 AM,50.0,42.8,76,30.27,10.0,South,4.6,-,N/A,,Clear,190,2012-10-13 05:15:00
12:55 AM,48.2,41.0,76,30.26,10.0,Calm,Calm,-,N/A,,Clear,0,2012-10-13 05:55:00
1:15 AM,48.2,41.0,76,30.26,10.0,East,3.5,-,N/A,,Clear,100,2012-10-13 06:15:00
1:35 AM,48.2,42.8,82,30.26,10.0,Calm,Calm,-,N/A,,Clear,0,2012-10-13 06:35:00
1:55 AM,46.4,39.2,76,30.26,6.0,Calm,Calm,-,N/A,,Clear,0,2012-10-13 06:55:00
2:15 AM,48.2,39.2,71,30.25,5.0,Calm,Calm,-,N/A,,Clear,0,2012-10-13 07:15:00
2:35 AM,48.2,39.2,71,30.25,3.0,East,3.5,-,N/A,,Clear,100,2012-10-13 07:35:00
2:55 AM,48.2,41.0,76,30.24,4.0,East,3.5,-,N/A,,Clear,100,2012-10-13 07:55:00
3:15 AM,46.4,39.2,76,30.23,3.0,East,4.6,-,N/A,,Clear,80,2012-10-13 08:15:00
3:35 AM,46.4,39.2,76,30.22,3.0,Calm,Calm,-,N/A,,Clear,0,2012-10-13 08:35:00
3:55 AM,46.4,39.2,76,30.22,3.0,East,3.5,-,N/A,,Clear,90,2012-10-13 08:55:00
4:15 AM,48.2,41.0,76,30.21,3.0,Calm,Calm,-,N/A,,Clear,0,2012-10-13 09:15:00
4:35 AM,48.2,41.0,76,30.20,5.0,Calm,Calm,-,N/A,,Clear,0,2012-10-13 09:35:00
4:55 AM,48.2,41.0,76,30.20,5.0,Calm,Calm,-,N/A,,Clear,0,2012-10-13 09:55:00
5:15 AM,46.4,41.0,81,30.20,3.0,Calm,Calm,-,N/A,,Clear,0,2012-10-13 10:15:00
5:55 AM,48.2,41.0,76,30.20,8.0,Calm,Calm,-,N/A,,Clear,0,2012-10-13 10:55:00
6:15 AM,48.2,41.0,76,30.20,10.0,SE,5.8,-,N/A,,Scattered Clouds,140,2012-10-13 11:15:00
6:35 AM,51.8,42.8,71,30.20,10.0,SSE,4.6,-,N/A,,Overcast,150,2012-10-13 11:35:00
6:55 AM,51.8,44.6,76,30.20,10.0,South,5.8,-,N/A,,Overcast,170,2012-10-13 11:55:00
7:15 AM,51.8,44.6,76,30.20,10.0,SSE,3.5,-,N/A,,Overcast,160,2012-10-13 12:15:00
7:35 AM,53.6,44.6,72,30.20,10.0,SSE,3.5,-,N/A,,Overcast,150,2012-10-13 12:35:00
7:55 AM,53.6,46.4,77,30.20,10.0,SE,5.8,-,N/A,,Overcast,140,2012-10-13 12:55:00
8:15 AM,53.6,46.4,77,30.19,10.0,SE,3.5,-,N/A,,Overcast,140,2012-10-13 13:15:00
8:55 AM,57.2,48.2,72,30.19,10.0,South,6.9,-,N/A,,Overcast,170,2012-10-13 13:55:00
9:35 AM,60.8,51.8,72,30.18,10.0,South,11.5,16.1,N/A,,Scattered Clouds,180,2012-10-13 14:35:00
9:55 AM,64.4,53.6,68,30.18,10.0,South,10.4,-,N/A,,Mostly Cloudy,190,2012-10-13 14:55:00
10:15 AM,64.4,55.4,73,30.17,10.0,South,10.4,17.3,N/A,,Overcast,190,2012-10-13 15:15:00
10:35 AM,66.2,55.4,68,30.17,10.0,South,11.5,19.6,N/A,,Overcast,190,2012-10-13 15:35:00
10:55 AM,68.0,55.4,64,30.16,10.0,South,16.1,20.7,N/A,,Mostly Cloudy,190,2012-10-13 15:55:00
11:15 AM,68.0,57.2,68,30.15,10.0,SSW,13.8,-,N/A,,Overcast,200,2012-10-13 16:15:00
11:35 AM,71.6,57.2,60,30.14,10.0,South,13.8,21.9,N/A,,Overcast,180,2012-10-13 16:35:00
11:55 AM,71.6,59.0,64,30.14,10.0,SSW,15.0,-,N/A,,Mostly Cloudy,210,2012-10-13 16:55:00
12:35 PM,73.4,60.8,65,30.12,10.0,South,9.2,-,N/A,,Overcast,190,2012-10-13 17:35:00
1:15 PM,77.0,62.6,61,30.09,10.0,SSW,11.5,-,N/A,,Mostly Cloudy,210,2012-10-13 18:15:00
1:35 PM,78.8,62.6,57,30.08,10.0,South,13.8,19.6,N/A,,Scattered Clouds,190,2012-10-13 18:35:00
1:55 PM,77.0,62.6,61,30.07,10.0,South,13.8,20.7,N/A,,Mostly Cloudy,190,2012-10-13 18:55:00
2:15 PM,78.8,62.6,57,30.06,10.0,South,11.5,-,N/A,,Mostly Cloudy,190,2012-10-13 19:15:00
2:35 PM,78.8,60.8,54,30.06,10.0,SSW,18.4,24.2,N/A,,Mostly Cloudy,210,2012-10-13 19:35:00
2:55 PM,78.8,60.8,54,30.05,10.0,SSW,16.1,24.2,N/A,,Mostly Cloudy,200,2012-10-13 19:55:00
3:15 PM,78.8,60.8,54,30.04,10.0,SSW,16.1,23.0,N/A,,Mostly Cloudy,210,2012-10-13 20:15:00
3:35 PM,77.0,60.8,57,30.04,10.0,SSW,13.8,-,N/A,,Overcast,200,2012-10-13 20:35:00
3:55 PM,78.8,60.8,54,30.03,10.0,SSW,13.8,20.7,N/A,,Mostly Cloudy,200,2012-10-13 20:55:00
4:15 PM,78.8,60.8,54,30.03,10.0,South,17.3,-,N/A,,Mostly Cloudy,190,2012-10-13 21:15:00
4:35 PM,77.0,60.8,57,30.03,10.0,SSW,17.3,24.2,N/A,,Scattered Clouds,200,2012-10-13 21:35:00
4:55 PM,77.0,60.8,57,30.02,10.0,South,13.8,23.0,N/A,,Scattered Clouds,190,2012-10-13 21:55:00
5:15 PM,75.2,60.8,61,30.02,10.0,SSW,12.7,19.6,N/A,,Partly Cloudy,200,2012-10-13 22:15:00
5:35 PM,75.2,59.0,57,30.02,10.0,South,11.5,-,N/A,,Clear,190,2012-10-13 22:35:00
6:15 PM,73.4,57.2,57,30.02,10.0,South,6.9,-,N/A,,Clear,190,2012-10-13 23:15:00
6:35 PM,71.6,57.2,60,30.02,10.0,South,8.1,-,N/A,,Clear,170,2012-10-13 23:35:00
7:35 PM,71.6,57.2,60,30.01,10.0,South,9.2,-,N/A,,Clear,170,2012-10-14 00:35:00
7:55 PM,69.8,57.2,64,30.01,10.0,South,11.5,-,N/A,,Clear,170,2012-10-14 00:55:00
8:35 PM,69.8,57.2,64,30.00,10.0,South,10.4,-,N/A,,Clear,170,2012-10-14 01:35:00
8:55 PM,69.8,57.2,64,29.99,10.0,SSE,10.4,-,N/A,,Clear,150,2012-10-14 01:55:00
9:15 PM,69.8,57.2,64,30.00,10.0,SSE,11.5,-,N/A,,Clear,160,2012-10-14 02:15:00
9:35 PM,68.0,55.4,64,29.99,10.0,SSE,9.2,-,N/A,,Clear,160,2012-10-14 02:35:00
9:55 PM,68.0,57.2,68,29.99,10.0,South,9.2,-,N/A,,Clear,170,2012-10-14 02:55:00
10:15 PM,68.0,57.2,68,29.99,10.0,South,11.5,-,N/A,,Clear,170,2012-10-14 03:15:00
11:15 PM,68.0,57.2,68,29.97,10.0,South,9.2,-,N/A,,Mostly Cloudy,170,2012-10-14 04:15:00
11:35 PM,69.8,59.0,68,29.96,10.0,South,11.5,16.1,N/A,,Scattered Clouds,180,2012-10-14 04:35:00